Waarnemingen

Advertentie
Mijn weer
Karesuando A, Zweden (2081): temperatuur & dauwpunt: 15.05.2018 18:00:00 - 21.05.2018 18:00:00 (CEST)Karesuando A, Zweden (2081): windsnelheid & windstoten: 15.05.2018 18:00:00 - 21.05.2018 18:00:00 (CEST)Karesuando A, Zweden (2081): windrichting: 15.05.2018 18:00:00 - 21.05.2018 18:00:00 (CEST)Karesuando A, Zweden (2081): luchtdruk: 15.05.2018 18:00:00 - 21.05.2018 18:00:00 (CEST)Karesuando A, Zweden (2081): zicht: 15.05.2018 18:00:00 - 21.05.2018 18:00:00 (CEST)Karesuando A, Zweden (2081): neerslag: 15.05.2018 18:00:00 - 21.05.2018 18:00:00 (CEST)
Datum & Tijd tt [°C] td [°C] ff [km/u] ff [kn] fx [km/u] fx [kn] dd ppp [hPa] vv [km] rr [mm]
21.05.2018 18:00:00 12,6 2,1 21 11 41 22 W 1019,6 50 0,0
21.05.2018 17:00:00 14,5 3,1 23 12 40 22 W 1019,0 50 0,0
21.05.2018 16:00:00 14,1 3,9 21 11 42 23 WNW 1018,5 49 0,0
21.05.2018 15:00:00 13,6 4,5 26 14 52 28 NW 1017,7 49 0,0
21.05.2018 14:00:00 15,6 4,4 26 14 58 32 W 1016,1 48 0,0
21.05.2018 13:00:00 15,6 4,7 29 16 62 34 W 1014,7 50 0,0
21.05.2018 12:00:00 15,4 3,9 33 18 54 29 W 1013,7 43 0,0
21.05.2018 11:00:00 14,6 4,0 28 15 44 24 WZW 1013,1 45 0,0
21.05.2018 10:00:00 15,5 4,5 24 13 39 21 W 1012,1 17 0,0
21.05.2018 09:00:00 14,3 4,3 23 12 40 22 WZW 1011,8 19 0,0
21.05.2018 08:00:00 13,4 4,8 21 11 38 21 WZW 1012,0 50 0,0
21.05.2018 07:00:00 12,2 4,2 20 11 33 18 W 1011,8 45 0,0
21.05.2018 06:00:00 11,1 3,7 15 8 24 13 WZW 1011,7 50 0,0
21.05.2018 05:00:00 9,5 3,7 6 3 16 9 NNW 1011,5 50 0,0
21.05.2018 04:00:00 9,2 3,6 10 5 26 14 W 1011,4 50 0,0
21.05.2018 03:00:00 9,1 3,3 12 6 27 14 ZW 1010,8 50 0,0
21.05.2018 02:00:00 9,7 3,2 16 8 29 16 ZZW 1011,0 50 0,0
21.05.2018 01:00:00 10,3 3,3 15 8 30 16 ZW 1010,8 50 0,0
21.05.2018 00:00:00 10,1 3,0 14 7 39 21 ZW 1011,4 50 0,0
20.05.2018 23:00:00 10,6 2,9 16 9 29 16 ZW 1011,4 50 0,0
20.05.2018 22:00:00 11,3 2,9 11 6 40 21 ZZW 1011,7 50 0,0
20.05.2018 21:00:00 12,2 2,9 25 14 50 27 ZW 1011,5 50 0,0
20.05.2018 20:00:00 12,4 2,8 24 13 55 30 ZW 1011,2 50 0,0
20.05.2018 19:00:00 12,5 3,0 21 11 42 23 ZZW 1011,4 50 0,0
20.05.2018 18:00:00 12,3 3,8 22 12 42 23 ZZW 1011,5 50 0,0
20.05.2018 17:00:00 12,0 3,0 14 8 37 20 ZZW 1012,0 50 0,0
20.05.2018 16:00:00 11,9 2,6 18 10 35 19 ZZW 1012,8 50 0,0
20.05.2018 15:00:00 11,8 2,3 16 9 40 22 ZW 1013,1 50 0,0
20.05.2018 14:00:00 11,6 1,6 19 10 41 22 ZZW 1013,3 50 0,0
20.05.2018 13:00:00 10,2 0,8 15 8 33 18 ZZW 1014,0 46 0,0
20.05.2018 12:00:00 9,3 -1,7 12 7 37 20 ZZW 1014,9 50 0,0
20.05.2018 11:00:00 8,8 -1,9 15 8 29 16 ZZW 1015,3 49 0,0
20.05.2018 10:00:00 8,7 -4,2 15 8 30 16 ZZW 1015,8 46 0,0
20.05.2018 09:00:00 7,3 -3,9 11 6 21 12 Z 1016,2 49 0,0
20.05.2018 08:00:00 6,6 -4,2 11 6 24 13 ZW 1017,0 40 0,0
20.05.2018 07:00:00 4,5 -2,6 15 8 24 13 WZW 1017,4 35 0,0
20.05.2018 06:00:00 3,8 -2,2 4 2 19 10 ZW 1017,9 31 0,0
20.05.2018 05:00:00 2,9 -2,2 13 7 31 17 W 1018,1 27 0,0
20.05.2018 04:00:00 3,1 -2,6 8 4 19 11 NNW 1018,2 33 0,0
20.05.2018 03:00:00 2,1 -2,6 8 4 15 8 ZZW 1017,8 30 0,0
20.05.2018 02:00:00 1,0 -2,3 5 3 15 8 W 1017,8 26 0,0
20.05.2018 01:00:00 1,8 -2,3 11 6 19 10 W 1017,4 33 0,0
20.05.2018 00:00:00 2,4 -2,1 8 4 30 16 ZZW 1017,0 35 0,0
19.05.2018 23:00:00 3,3 -1,6 12 7 32 17 W 1016,6 44 0,0
19.05.2018 22:00:00 5,1 -1,3 20 11 34 19 WNW 1015,9 28 0,0
19.05.2018 21:00:00 6,6 0,3 18 10 38 21 W 1014,8 50 0,0
19.05.2018 20:00:00 6,3 1,0 19 10 38 21 WNW 1014,5 50 0,0
19.05.2018 19:00:00 7,6 -1,6 25 14 56 30 W 1014,0 50 0,0
19.05.2018 18:00:00 8,7 -1,7 21 11 50 27 W 1013,4 50 0,0
19.05.2018 17:00:00 10,1 0,7 24 13 55 30 W 1012,6 50 0,0
19.05.2018 16:00:00 12,1 -0,4 32 17 59 32 WZW 1011,5 50 0,0
19.05.2018 15:00:00 12,2 -0,3 25 13 45 25 WZW 1011,3 50 0,0
19.05.2018 14:00:00 12,4 -0,8 27 14 54 29 WZW 1011,1 50 0,0
19.05.2018 13:00:00 13,9 -0,2 27 15 48 26 WZW 1011,1 50 0,0
19.05.2018 12:00:00 12,9 -0,7 22 12 40 21 ZW 1011,6 50 0,0
19.05.2018 11:00:00 11,9 -0,3 12 7 32 17 ZZW 1012,2 50 0,0
19.05.2018 10:00:00 9,3 0,8 18 10 32 17 ZZW 1013,4 50 0,0
19.05.2018 09:00:00 8,6 1,8 14 8 24 13 Z 1013,4 50 0,0
19.05.2018 08:00:00 8,6 2,2 11 6 21 11 ZZW 1014,3 50 0,0
19.05.2018 07:00:00 6,7 1,8 10 6 19 10 ZZW 1015,3 50 0,0
19.05.2018 06:00:00 5,9 1,8 9 5 14 8 ZW 1015,8 50 0,0
19.05.2018 05:00:00 4,7 1,5 4 2 15 8 ZZW 1016,2 50 0,0
19.05.2018 04:00:00 4,0 1,2 8 5 14 8 ZZW 1016,8 50 0,0
19.05.2018 03:00:00 3,2 0,9 7 4 12 6 ZZW 1017,2 50 0,0
19.05.2018 02:00:00 2,4 0,8 8 5 14 8 ZZW 1017,6 50 0,0
19.05.2018 01:00:00 2,1 0,5 5 3 10 5 Z 1017,7 50 0,0
19.05.2018 00:00:00 3,2 0,6 4 2 19 11 ZZW 1017,7 50 0,0
18.05.2018 23:00:00 5,2 1,1 11 6 22 12 W 1017,4 50 0,0
18.05.2018 22:00:00 6,4 1,0 14 7 21 12 W 1017,1 50 0,0
18.05.2018 21:00:00 7,3 0,3 9 5 29 16 W 1016,8 50 0,0
18.05.2018 20:00:00 8,3 -0,5 15 8 31 17 W 1016,5 50 0,0
18.05.2018 19:00:00 8,8 -1,6 11 6 33 18 W 1016,3 50 0,0
18.05.2018 18:00:00 10,6 -2,4 15 8 33 18 WNW 1016,1 50 0,0
18.05.2018 17:00:00 10,2 -2,7 17 9 35 19 WNW 1016,2 50 0,0
18.05.2018 16:00:00 10,0 -3,0 16 9 37 20 WNW 1016,2 48 0,0
18.05.2018 15:00:00 10,5 -2,9 22 12 39 21 WNW 1016,1 50 0,0
18.05.2018 14:00:00 9,0 -0,6 24 13 37 20 NW 1016,0 50 0,0
18.05.2018 13:00:00 10,7 -1,4 22 12 40 21 NNW 1015,4 50 0,0
18.05.2018 12:00:00 9,7 -0,5 24 13 39 21 NW 1015,3 48 0,0
18.05.2018 11:00:00 9,1 -0,2 19 10 32 18 NW 1015,1 50 0,0
18.05.2018 10:00:00 9,9 0,2 18 10 32 17 NW 1014,6 48 0,0
18.05.2018 09:00:00 8,7 -0,3 19 10 31 17 WNW 1014,6 49 0,0
18.05.2018 08:00:00 7,7 -0,2 14 8 23 13 WNW 1014,6 50 0,0
18.05.2018 07:00:00 5,9 -0,2 10 5 16 8 W 1015,0 50 0,0
18.05.2018 06:00:00 3,2 1,8 3 2 9 5 ONO 1015,6 50 0,0
18.05.2018 05:00:00 2,0 0,7 6 4 10 6 NO 1016,1 50 0,0
18.05.2018 04:00:00 2,4 1,3 5 3 9 5 OZO 1016,3 49 0,0
18.05.2018 03:00:00 1,8 1,2 6 3 8 5 OZO 1016,6 47 0,0
18.05.2018 02:00:00 1,2 0,4 1 1 4 2 ONO 1016,9 50 0,0
18.05.2018 01:00:00 2,8 1,0 3 1 7 4 O 1016,9 50 0,0
18.05.2018 00:00:00 3,5 0,5 3 2 11 6 ONO 1017,4 50 0,0
17.05.2018 23:00:00 3,9 0,1 3 2 9 5 O 1017,6 50 0,0
17.05.2018 22:00:00 5,6 -0,3 5 3 13 7 OZO 1017,6 50 0,0
17.05.2018 21:00:00 7,4 -1,0 9 5 20 11 OZO 1017,5 48 0,0
17.05.2018 20:00:00 8,7 -2,3 9 5 18 10 O 1017,5 50 0,0
17.05.2018 19:00:00 9,5 -3,4 9 5 18 10 O 1017,7 50 0,0
17.05.2018 18:00:00 9,7 -4,6 7 4 16 9 O 1017,9 50 0,0
17.05.2018 17:00:00 9,8 -3,8 7 4 16 8 NNO 1018,0 46 0,0
17.05.2018 16:00:00 10,4 -5,2 6 3 14 8 NNW 1018,3 50 0,0
17.05.2018 15:00:00 10,8 -4,0 7 4 19 10 N 1018,7 47 0,0
17.05.2018 14:00:00 9,9 -4,1 7 4 16 9 N 1019,4 43 0,0
17.05.2018 13:00:00 8,9 -4,2 8 4 20 11 NNW 1019,9 50 0,0
17.05.2018 12:00:00 10,0 -2,9 8 4 22 12 N 1020,1 46 0,0
17.05.2018 11:00:00 9,2 -2,4 11 6 24 13 NW 1020,6 35 0,0
17.05.2018 10:00:00 8,3 -3,3 13 7 28 15 NNW 1020,8 44 0,0
17.05.2018 09:00:00 7,3 -3,2 16 9 31 17 NW 1020,9 41 0,0
17.05.2018 08:00:00 6,9 -3,1 13 7 29 16 NNW 1020,9 42 0,0
17.05.2018 07:00:00 5,9 -3,0 18 10 33 18 NNW 1020,9 47 0,0
17.05.2018 06:00:00 5,0 -2,8 18 10 32 17 NW 1020,7 47 0,0
17.05.2018 05:00:00 4,6 -2,7 23 12 39 21 NW 1020,4 50 0,0
17.05.2018 04:00:00 4,6 -1,0 19 10 40 22 NW 1019,8 50 0,0
17.05.2018 03:00:00 5,3 0,7 19 11 34 18 WNW 1019,0 50 0,0
17.05.2018 02:00:00 6,4 1,1 23 12 36 19 NW 1017,9 50 0,0
17.05.2018 01:00:00 6,6 1,5 14 7 27 15 WNW 1017,4 50 0,0
17.05.2018 00:00:00 7,4 2,5 14 8 26 14 WNW 1016,4 50 0,0
16.05.2018 23:00:00 7,7 4,8 14 7 34 19 WNW 1016,1 50 0,2
16.05.2018 22:00:00 8,6 4,8 19 10 40 22 WNW 1015,6 50 0,0
16.05.2018 21:00:00 11,7 6,2 13 7 37 20 W 1013,6 50 0,0
16.05.2018 20:00:00 13,4 10,1 7 4 19 11 Z 1012,2 48 0,0
16.05.2018 19:00:00 15,0 9,5 11 6 36 19 Z 1011,5 50 0,0
16.05.2018 18:00:00 16,3 10,2 5 3 16 9 O 1011,5 50 0,0
16.05.2018 17:00:00 16,9 11,4 7 4 16 9 O 1011,1 45 0,0
16.05.2018 16:00:00 15,4 10,6 13 7 42 23 NW 1011,8 13 4,5
16.05.2018 15:00:00 21,9 8,5 6 3 27 14 WZW 1010,4 14 0,0
16.05.2018 14:00:00 23,3 7,8 10 6 33 18 ZW 1010,8 17 0,0
16.05.2018 13:00:00 22,2 8,4 9 5 19 11 WZW 1011,4 15 0,0
16.05.2018 12:00:00 21,9 7,4 9 5 18 10 ZW 1011,9 16 0,0
16.05.2018 11:00:00 19,3 6,5 4 2 12 7 NW 1012,6 17 0,0
16.05.2018 10:00:00 16,2 4,3 7 4 15 8 ONO 1013,7 23 0,0
16.05.2018 09:00:00 13,8 3,3 8 5 13 7 ONO 1014,6 17 0,0
16.05.2018 08:00:00 11,1 1,4 4 2 8 4 O 1015,7 16 0,0
16.05.2018 07:00:00 8,5 2,3 3 2 5 3 NNW 1016,6 50 0,0
16.05.2018 06:00:00 5,7 2,0 2 1 5 3 W 1017,7 50 0,0
16.05.2018 05:00:00 3,7 1,4 4 2 6 3 NW 1018,7 50 0,0
16.05.2018 04:00:00 2,4 1,4 2 1 7 4 WZW 1019,4 50 0,0
16.05.2018 03:00:00 1,4 1,1 4 2 5 3 WZW 1020,1 21 0,0
16.05.2018 02:00:00 1,6 1,3 5 3 5 3 W 1020,2 2,6 0,0
16.05.2018 01:00:00 2,9 1,2 1 1 7 4 WNW 1020,3 50 0,0
16.05.2018 00:00:00 5,0 1,9 3 2 7 4 Z 1020,2 50 0,0
15.05.2018 23:00:00 7,0 2,3 3 2 7 4 W 1020,1 50 0,0
15.05.2018 22:00:00 11,4 3,5 4 2 8 4 NW 1019,4 50 0,0
15.05.2018 21:00:00 14,5 1,1 5 3 16 9 NNW 1019,0 50 0,0
15.05.2018 20:00:00 15,0 0,8 10 6 19 10 WNW 1018,8 50 0,0
15.05.2018 19:00:00 15,5 3,0 14 7 22 12 WNW 1019,1 50 0,0
15.05.2018 18:00:00 16,9 5,2 15 8 26 14 NW 1019,1 50 0,0

tt = temperatuur
td = dauwpunt
ff = windsnelheid
fx = windstoten
dd = windrichting
ppp = luchtdruk
vv = zicht
rr = neerslag

Weerstations in de omgeving